Location: T�bingen+AIT
(48.5342°N, 9.0700°E)
Time: 20:29:40
(UTC+02:00)

Cosmos 1758 Rocket - Pass Details

Date: 14 September 2017
Orbit: 603 x 636 km, 82.5° (Epoch: 19 September)

Event Time Altitude Azimuth Distance (km) Brightness Sun altitude
Rises 20:58:32 0° 350° (N) 2,918 7.5 -13.7°
Reaches altitude 10° 21:00:46 10° 351° (N) 2,012 6.6 -14.1°
Maximum altitude 21:05:14 88° 81° (E) 637 3.5 -14.8°
Drops below altitude 10° 21:09:43 10° 171° (S) 2,012 5.9 -15.4°
Enters shadow 21:10:12 - 171° (S) 2,207 6.1 -15.5°
